SCOUT A DEB, 31407

Orbit data source: Space-Track

SCOUT A DEB, 31407 is space debris in LEO originally from a launch on Thu, 19 May 1966 UTC launched from the Air Force Western Test Range (AFWTR). Debris objects in space refer to the collection of defunct objects orbiting the Earth. Examples of debris include non-operational satellites, rocket bodies, and fragments generated from explosions, collisions, or faulty payload assembly.

Loading next visibility...
Identifier
31407, 1966-041H
Orbit
LEO
Country
Flag of USUS
Related business
Manufacturer
Unknown
Mission
Spacecraft
Bus & Motor
Unknown
Mass
Unknown
Launch date (UTC)
1966-05-19 (60 years ago)
Launch vehicle
Unknown
Launch site
Air Force Western Test Range (AFWTR)
Object type
Payload
Rocket body
Debris
Shape & HBR
Unknown shape, 0.1 m
Radar Cross Section
Small (<0.1 m²)

Expand to show TLE details & history
Last TLE update: 1 week ago

TLE from 1 week ago
0 SCOUT A DEB
1 31407U 66041H   25341.98520911  .00004999  00000-0  18365-2 0  9998
2 31407  90.2032  70.4978 0056689 161.4879 198.8398 14.31739825472796
Epoch: 2025-12-07T23:38Z
TLE epoch observation values (Epoch: 2025-12-07T23:38:42.067Z)
Latitude
-0.00004°
Longitude
-1.16822°
Altitude
827.462 km
Speed
7.419 km/s
True Right ascension
04h 41m 59s
True Declination
0° 00' 00"
Sunlit
Object was in full shadow at epoch
Visualization orbit readout
Latitude
Unknown
Longitude
Unknown
Altitude
Unknown
Speed
Unknown
Apparent Right ascension
Unknown
Apparent Declination
Unknown
Sunlit
N/A
Visualization observer readout
Local Sidereal Time
19:01:32
Azimuth
Unknown
Elevation
Unknown
Doppler factor
Unknown
Orbital elements
Apogee altitude
823.448 km
Perigee altitude
742.258 km
Semi-major axis
7,160.99 km
Eccentricity
0.00567
Inclination
90.2032°
RAAN
70.4978°
Arg. of periapsis
161.4879°
True anomaly
198.63142°
Mean anomaly
198.8398°
Eccentric anomaly
198.73547°
Mean motion
3.58165 °/min
Orbital period
100.51 mins
BSTAR
0.0018365
Loading maneuver chart data...
Computing Atmospheric mass density...
Loading historical data...
Loading historical data...
Loading historical data...
Loading historical data...
Loading historical data...
Loading historical data...
Loading historical data...

Documentation

Showing up to 5 results
|